Weather History for Pensacola, FL

Change the Weather History Date:

Monday, November 12, 2012

  Actual Average Record
Temperature  
Mean Temperature 64 °F 62 °F  
Max Temperature 76 °F 71 °F 82 °F (2003)
Min Temperature 51 °F 52 °F 29 °F (1894)
Degree Days  
Heating Degree Days 1 5  
Month to date heating degree days 39 47  
Since 1 July heating degree days 68 85  
Cooling Degree Days 0 2  
Month to date cooling degree days 25 27  
Year to date cooling degree days 3029 2577  
Growing Degree Days 14 (Base 50)    
Moisture  
Dew Point 58 °F    
Average Humidity 81    
Maximum Humidity 93    
Minimum Humidity 69    
Precipitation  
Precipitation 0.03 in 0.16 in 3.30 in (1975)
Month to date precipitation 0.34 1.93  
Year to date precipitation 63.65 57.92  
Snow  
Snow 0.00 in 0.00 in 0.00 in (2002)
Month to date snowfall 0.0 0.0  
Since 1 July snowfall 0.0 0.0  
Snow Depth 0.00 in    
Sea Level Pressure  
Sea Level Pressure 30.22 in    
Wind  
Wind Speed 12 mph (North)    
Max Wind Speed 21 mph    
Max Gust Speed 30 mph    
Visibility 10 miles    
Events Rain    
T = Trace of Precipitation, MM = Missing Value Source: NWS Daily Summary

Daily Weather History Graph

Daily Weather History Graph

Search for Another Location

Airport:

Trip Planner

Search our weather history database for the weather conditions in past years. The results will help you decide how hot, cold, wet, or windy it might be!

Date:

Astronomy

Nov. 12, 2012 Rise Set
Actual Time 6:12 AM CST 4:53 PM CST
Civil Twilight 5:47 AM CST 5:18 PM CST
Nautical Twilight 5:18 AM CST 5:47 PM CST
Astronomical Twilight 4:49 AM CST 6:15 PM CST
Moon 4:41 AM CST (11/12) 3:55 PM CST (11/12)
Length of Visible Light 11h 31m
Length of Day
10h 40m
Waning Crescent, 2% of the Moon is Illuminated
Nov 12
Waning Crescent
Nov 13
New
Nov 20
First Quarter
Nov 28
Full
Dec 6
Last Quarter

Hourly Weather History & Observations

Time (CST) Temp. Dew Point Humidity Pressure Visibility Wind Dir Wind Speed Gust Speed Precip Events Conditions
12:53 AM 66.0 °F 62.1 °F 87% 30.19 in 10.0 mi Calm Calm - N/A   Clear
1:53 AM 70.0 °F 62.1 °F 76% 30.18 in 10.0 mi SSE 10.4 mph - N/A   Clear
2:53 AM 70.0 °F 62.1 °F 76% 30.17 in 10.0 mi SSE 10.4 mph - N/A   Clear
3:53 AM 66.9 °F 63.0 °F 87% 30.15 in 10.0 mi ESE 10.4 mph - N/A   Clear
4:53 AM 70.0 °F 63.0 °F 78% 30.16 in 10.0 mi SSE 10.4 mph - N/A   Clear
5:53 AM 71.1 °F 63.0 °F 75% 30.16 in 10.0 mi SSE 13.8 mph - N/A   Clear
6:53 AM 71.1 °F 64.0 °F 78% 30.19 in 10.0 mi SSE 10.4 mph - N/A   Clear
7:53 AM 72.0 °F 64.9 °F 78% 30.19 in 10.0 mi SSE 10.4 mph - N/A   Clear
8:53 AM 75.0 °F 66.0 °F 73% 30.21 in 10.0 mi SSE 9.2 mph - N/A   Clear
9:53 AM 75.9 °F 66.0 °F 71% 30.22 in 10.0 mi South 10.4 mph - N/A   Mostly Cloudy
10:53 AM 75.9 °F 64.9 °F 69% 30.22 in 10.0 mi South 10.4 mph - N/A   Overcast
11:53 AM 75.9 °F 66.0 °F 71% 30.20 in 10.0 mi South 12.7 mph - N/A   Overcast
12:53 PM 68.0 °F 63.0 °F 84% 30.19 in 10.0 mi NW 15.0 mph - 0.00 in Rain Light Rain
12:58 PM 66.2 °F 62.6 °F 88% 30.18 in 9.0 mi NW 15.0 mph - 0.00 in Rain Light Rain
1:13 PM 66.2 °F 62.6 °F 88% 30.19 in 4.0 mi NW 13.8 mph - 0.02 in Rain Light Rain
1:53 PM 63.0 °F 61.0 °F 93% 30.19 in 7.0 mi NNW 12.7 mph 19.6 mph 0.03 in Rain Light Rain
2:53 PM 62.1 °F 59.0 °F 90% 30.20 in 10.0 mi NNW 15.0 mph - 0.00 in Rain Light Rain
3:53 PM 61.0 °F 57.9 °F 90% 30.22 in 10.0 mi North 11.5 mph 19.6 mph 0.00 in   Overcast
4:53 PM 60.1 °F 57.0 °F 90% 30.23 in 10.0 mi North 15.0 mph 20.7 mph N/A   Overcast
5:41 PM 59.0 °F 55.4 °F 88% 30.24 in 10.0 mi North 13.8 mph - N/A   Overcast
5:53 PM 57.9 °F 55.0 °F 90% 30.25 in 10.0 mi North 16.1 mph 24.2 mph N/A   Overcast
6:53 PM 57.0 °F 53.1 °F 87% 30.27 in 10.0 mi North 12.7 mph 21.9 mph N/A   Overcast
7:53 PM 57.0 °F 52.0 °F 83% 30.28 in 10.0 mi North 13.8 mph 19.6 mph N/A   Overcast
8:53 PM 57.0 °F 52.0 °F 83% 30.28 in 10.0 mi North 10.4 mph 18.4 mph N/A   Mostly Cloudy
8:57 PM 57.2 °F 51.8 °F 82% 30.27 in 10.0 mi North 13.8 mph 18.4 mph N/A   Overcast
9:53 PM 57.0 °F 50.0 °F 77% 30.29 in 10.0 mi North 16.1 mph 26.5 mph N/A   Overcast
10:00 PM 55.4 °F 48.2 °F 77% 30.29 in 10.0 mi North 15.0 mph 25.3 mph N/A   Overcast
10:53 PM 54.0 °F 48.0 °F 80% 30.28 in 10.0 mi North 15.0 mph 25.3 mph N/A   Overcast
11:19 PM 53.6 °F 46.4 °F 77% 30.28 in 10.0 mi North 15.0 mph - N/A   Scattered Clouds
11:53 PM 51.1 °F 45.0 °F 80% 30.29 in 10.0 mi North 16.1 mph 24.2 mph N/A   Clear